This demonstration page uses our WeatherBlox Daily Observations layout. Learn more.

Left ArrowRight Arrow

41.55636, -103.73856

Hourly Observations for July 25, 2015

Temp ( °F °C ) Dew Point ( °F °C ) Humidity (%) Winds ( mph kmh ) Pressure ( in mb ) Visibility ( mi km ) Precip ( " mm )
12:53 am 00:53 Clear 69 20.6 63 17.2 81 81 E 6 9 29.85 1011 10 16.0934 0 0
1:53 am 01:53 Clear 68 20 63 17.2 84 84 E 9 15 29.84 1010 10 16.0934 0 0
2:53 am 02:53 Clear 67 19.4 63 17.2 87 87 ENE 3 6 29.84 1010 10 16.0934 0 0
3:53 am 03:53 Clear 65 18.3 62 16.7 90 90 E 8 13 29.85 1011 10 16.0934 0 0
4:53 am 04:53 Clear 63 17.2 60 15.6 90 90 Calm 29.85 1011 10 16.0934 0 0
5:53 am 05:53 Sunny 61 16.1 60 15.6 97 97 W 6 9 29.87 1011 10 16.0934 0 0
6:53 am 06:53 Sunny 65 18.3 62 16.7 90 90 NW 3 6 29.88 1012 10 16.0934 0 0
7:53 am 07:53 Sunny 68 20 57 13.9 68 68 VRB 3 6 29.9 1013 10 16.0934 0 0
8:53 am 08:53 Sunny 69 20.6 57 13.9 66 66 NW 14 22 29.93 1014 10 16.0934 0 0
9:53 am 09:53 Sunny 73 22.8 58 14.4 59 59 WNW 9 15 29.93 1014 10 16.0934 0 0
10:53 am 10:53 Sunny 78 25.6 61 16.1 56 56 VRB 7 11 29.93 1014 10 16.0934 0 0
11:53 am 11:53 Sunny 80 26.7 62 16.7 54 54 VRB 3 6 29.91 1013 10 16.0934 0 0
12:53 pm 12:53 Sunny 84 28.9 63 17.2 49 49 WNW 6 9 29.9 1012 10 16.0934 0 0
1:53 pm 13:53 Sunny 85 29.4 62 16.7 46 46 VRB 5 7 29.87 1012 10 16.0934 0 0
2:53 pm 14:53 Sunny 88 31.1 62 16.7 42 42 S 7 11 29.85 1011 10 16.0934 0 0
3:53 pm 15:53 Sunny 89 31.7 59 15 36 36 S 7 11 29.84 1011 10 16.0934 0 0
4:53 pm 16:53 Sunny 89 31.7 56 13.3 33 33 S 3 6 29.83 1010 10 16.0934 0 0
5:53 pm 17:53 Sunny 90 32.2 53 11.7 28 28 E 5 7 29.82 1010 10 16.0934 0 0
6:53 pm 18:53 Sunny 82 27.8 56 13.3 41 41 ENE 7 11 29.84 1011 10 16.0934 0 0
7:53 pm 19:53 Sunny 77 25 57 13.9 50 50 E 7 11 29.84 1011 10 16.0934 0 0
8:53 pm 20:53 Clear 74 23.3 57 13.9 56 56 S 5 7 29.85 1011 10 16.0934 0 0
9:53 pm 21:53 Clear 72 22.2 58 14.4 61 61 Calm 29.86 1011 10 16.0934 0 0
10:53 pm 22:53 Clear 68 20 58 14.4 70 70 ENE 8 13 29.84 1011 10 16.0934 0 0
11:53 pm 23:53 Clear 66 18.9 59 15 78 78 Calm 29.84 1011 10 16.0934 0 0

Powered by AerisWeather